Weather History for KSDY - November, 2011

Change the Weather History Date:

Tuesday, November 15, 2011

  Actual Average Record
Temperature  
Mean Temperature 26 °F -  
Max Temperature 33 °F 41 °F 68 °F (1953)
Min Temperature 19 °F 19 °F -10 °F (1959)
Degree Days  
Heating Degree Days 39    
Moisture  
Dew Point 18 °F    
Average Humidity 70    
Maximum Humidity 86    
Minimum Humidity 48    
Precipitation  
Precipitation 0.00 in - - ()
Sea Level Pressure  
Sea Level Pressure 29.83 in    
Wind  
Wind Speed 18 mph (WNW)    
Max Wind Speed 30 mph    
Max Gust Speed 39 mph    
Visibility 10 miles    
Events      
Averages and records for this station are not official NWS values.
T = Trace of Precipitation, MM = Missing Value Source: NWS Daily Summary

Daily Weather History Graph

Daily Weather History Graph

Search for Another Location

Airport or City:

Trip Planner

Search our weather history database for the weather conditions in past years. The results will help you decide how hot, cold, wet, or windy it might be!

Date:

Astronomy

Nov. 15, 2011 Rise Set
Actual Time 7:01 AM MST 4:20 PM MST
Civil Twilight 6:28 AM MST 4:53 PM MST
Nautical Twilight 5:50 AM MST 5:31 PM MST
Astronomical Twilight 5:14 AM MST 6:07 PM MST
Moon 8:30 PM MST (11/15) 11:05 AM MST (11/15)
Length of Visible Light 10h 25m
Length of Day
9h 18m
Waning Gibbous, 78% of the Moon is Illuminated
Nov 15
Waning Gibbous
Nov 18
Last Quarter
Nov 24
New
Dec 2
First Quarter
Dec 10
Full

Hourly Weather History & Observations

Time (MST) Temp. Windchill Dew Point Humidity Pressure Visibility Wind Dir Wind Speed Gust Speed Precip Events Conditions
12:15 AM 33.8 °F 22.2 °F 28.4 °F 81% 29.48 in 10.0 mi West 20.7 mph 28.8 mph N/A   Mostly Cloudy
12:55 AM 32.0 °F 17.6 °F 26.6 °F 80% 29.50 in 5.0 mi NW 29.9 mph 39.1 mph N/A   Overcast
1:15 AM 30.2 °F 16.8 °F 24.8 °F 80% 29.52 in 10.0 mi NW 23.0 mph 32.2 mph N/A   Partly Cloudy
1:35 AM 28.4 °F 14.7 °F 23.0 °F 80% 29.54 in 10.0 mi WNW 21.9 mph 27.6 mph N/A   Clear
1:55 AM 28.4 °F 15.1 °F 23.0 °F 80% 29.56 in 10.0 mi WNW 20.7 mph 27.6 mph N/A   Clear
2:35 AM 28.4 °F 15.4 °F 21.2 °F 74% 29.59 in 10.0 mi WNW 19.6 mph 26.5 mph N/A   Clear
2:55 AM 26.6 °F 13.4 °F 21.2 °F 80% 29.60 in 10.0 mi WNW 18.4 mph 25.3 mph N/A   Clear
3:15 AM 26.6 °F 12.7 °F 21.2 °F 80% 29.61 in 10.0 mi WNW 20.7 mph 27.6 mph N/A   Clear
3:55 AM 26.6 °F 13.1 °F 19.4 °F 74% 29.63 in 10.0 mi WNW 19.6 mph 27.6 mph N/A   Partly Cloudy
4:15 AM 26.6 °F 12.0 °F 19.4 °F 74% 29.64 in 10.0 mi WNW 23.0 mph 27.6 mph N/A   Partly Cloudy
4:35 AM 26.6 °F 13.1 °F 19.4 °F 74% 29.66 in 10.0 mi WNW 19.6 mph 28.8 mph N/A   Scattered Clouds
4:55 AM 26.6 °F 14.3 °F 19.4 °F 74% 29.68 in 10.0 mi WNW 16.1 mph - N/A   Mostly Cloudy
6:15 AM 26.6 °F 12.7 °F 15.8 °F 64% 29.71 in 10.0 mi WNW 20.7 mph 28.8 mph N/A   Partly Cloudy
6:35 AM 26.6 °F 14.3 °F 17.6 °F 69% 29.73 in 10.0 mi West 16.1 mph 26.5 mph N/A   Scattered Clouds
6:55 AM 24.8 °F 9.6 °F 17.6 °F 74% 29.73 in 10.0 mi WNW 23.0 mph 34.5 mph N/A   Scattered Clouds
7:15 AM 24.8 °F 10.3 °F 17.6 °F 74% 29.74 in 10.0 mi WNW 20.7 mph 29.9 mph N/A   Scattered Clouds
8:15 AM 26.6 °F 12.7 °F 17.6 °F 69% 29.77 in 10.0 mi WNW 20.7 mph 29.9 mph N/A   Clear
8:35 AM 24.8 °F 10.0 °F 17.6 °F 74% 29.78 in 10.0 mi WNW 21.9 mph 28.8 mph N/A   Clear
8:55 AM 26.6 °F 13.1 °F 17.6 °F 69% 29.80 in 10.0 mi WNW 19.6 mph 27.6 mph N/A   Clear
9:15 AM 26.6 °F 12.7 °F 17.6 °F 69% 29.81 in 10.0 mi WNW 20.7 mph 28.8 mph N/A   Mostly Cloudy
9:35 AM 28.4 °F 17.0 °F 17.6 °F 64% 29.83 in 10.0 mi WNW 15.0 mph 24.2 mph N/A   Overcast
9:55 AM 28.4 °F 16.2 °F 15.8 °F 59% 29.84 in 10.0 mi WNW 17.3 mph 29.9 mph N/A   Overcast
10:55 AM 26.6 °F 13.4 °F 15.8 °F 64% 29.85 in 10.0 mi WNW 18.4 mph 25.3 mph N/A   Overcast
11:15 AM 26.6 °F 13.8 °F 12.2 °F 55% 29.85 in 10.0 mi WNW 17.3 mph 26.5 mph N/A   Overcast
11:35 AM 28.4 °F 18.5 °F 15.8 °F 59% 29.85 in 10.0 mi WNW 11.5 mph 23.0 mph N/A   Overcast
11:55 AM 28.4 °F 16.6 °F 15.8 °F 59% 29.85 in 10.0 mi WNW 16.1 mph 26.5 mph N/A   Overcast
12:15 PM 28.4 °F 16.2 °F 14.0 °F 55% 29.85 in 10.0 mi WNW 17.3 mph - N/A   Overcast
12:35 PM 30.2 °F 18.1 °F 15.8 °F 55% 29.86 in 10.0 mi WNW 18.4 mph 24.2 mph N/A   Overcast
1:15 PM 32.0 °F 20.8 °F 15.8 °F 51% 29.87 in 10.0 mi West 17.3 mph 24.2 mph N/A   Overcast
1:55 PM 30.2 °F 18.9 °F 15.8 °F 55% 29.88 in 10.0 mi WNW 16.1 mph 21.9 mph N/A   Mostly Cloudy
2:35 PM 32.0 °F 20.1 °F 14.0 °F 48% 29.89 in 10.0 mi WNW 19.6 mph 26.5 mph N/A   Mostly Cloudy
2:55 PM 30.2 °F 17.8 °F 15.8 °F 55% 29.90 in 10.0 mi WNW 19.6 mph 26.5 mph N/A   Scattered Clouds
3:15 PM 30.2 °F 18.5 °F 14.0 °F 51% 29.91 in 10.0 mi WNW 17.3 mph 24.2 mph N/A   Partly Cloudy
3:35 PM 30.2 °F 18.1 °F 15.8 °F 55% 29.92 in 10.0 mi WNW 18.4 mph 24.2 mph N/A   Partly Cloudy
3:55 PM 30.2 °F 19.8 °F 14.0 °F 51% 29.92 in 10.0 mi WNW 13.8 mph - N/A   Partly Cloudy
4:15 PM 28.4 °F 18.5 °F 15.8 °F 59% 29.92 in 10.0 mi West 11.5 mph - N/A   Mostly Cloudy
5:15 PM 26.6 °F 15.7 °F 17.6 °F 69% 29.94 in 10.0 mi West 12.7 mph - N/A   Overcast
5:35 PM 26.6 °F 15.2 °F 17.6 °F 69% 29.94 in 10.0 mi West 13.8 mph 20.7 mph N/A   Overcast
6:15 PM 26.6 °F 17.5 °F 17.6 °F 69% 29.94 in 10.0 mi West 9.2 mph - N/A   Scattered Clouds
6:35 PM 24.8 °F 14.6 °F 19.4 °F 80% 29.94 in 10.0 mi West 10.4 mph - N/A   Clear
6:55 PM 24.8 °F 15.3 °F 17.6 °F 74% 29.95 in 10.0 mi West 9.2 mph - N/A   Clear
7:15 PM 24.8 °F 13.4 °F 19.4 °F 80% 29.94 in 10.0 mi West 12.7 mph - N/A   Mostly Cloudy
7:35 PM 24.8 °F 15.3 °F 19.4 °F 80% 29.95 in 10.0 mi West 9.2 mph - N/A   Mostly Cloudy
7:55 PM 23.0 °F 13.9 °F 17.6 °F 80% 29.94 in 10.0 mi West 8.1 mph - N/A   Scattered Clouds
8:15 PM 21.2 °F 14.9 °F 15.8 °F 80% 29.94 in 10.0 mi West 4.6 mph - N/A   Clear
8:35 PM 21.2 °F 10.9 °F 17.6 °F 86% 29.94 in 10.0 mi West 9.2 mph - N/A   Clear
8:55 PM 24.8 °F 14.0 °F 17.6 °F 74% 29.94 in 10.0 mi West 11.5 mph - N/A   Clear
9:15 PM 24.8 °F 14.0 °F 15.8 °F 69% 29.97 in 10.0 mi NW 11.5 mph - N/A   Clear
9:35 PM 21.2 °F 10.9 °F 15.8 °F 80% 29.98 in 10.0 mi NW 9.2 mph - N/A   Clear
9:55 PM 21.2 °F 10.9 °F 15.8 °F 80% 29.99 in 10.0 mi West 9.2 mph - N/A   Clear
10:15 PM 19.4 °F 9.5 °F 15.8 °F 86% 29.99 in 10.0 mi WNW 8.1 mph - N/A   Clear
10:35 PM 19.4 °F 7.9 °F 14.0 °F 80% 30.00 in 10.0 mi West 10.4 mph - N/A   Clear
11:15 PM 19.4 °F 7.2 °F 14.0 °F 80% 30.01 in 10.0 mi West 11.5 mph - N/A   Clear
11:35 PM 21.2 °F 10.1 °F 14.0 °F 74% 30.03 in 10.0 mi West 10.4 mph - N/A   Clear
11:55 PM 19.4 °F 7.9 °F 12.2 °F 74% 30.03 in 10.0 mi West 10.4 mph - N/A   Clear